Location: Katowice
(50.2611°N, 19.0242°E)
Time: 12:03:13
(UTC+02:00)

Tiros 1 - Pass Details

Date: 30 August 2019
Orbit: 631 x 664 km, 48.4° (Epoch: 16 September)

Event Time Altitude Azimuth Distance (km) Brightness Sun altitude
Rises 20:44:02 0° 197° (SSW) 2,909 10.4 -11.3°
Reaches altitude 10° 20:47:13 10° 174° (S) 2,003 9.3 -11.7°
Enters shadow 20:49:26 15° 145° (SE) 1,705 8.8 -12.0°
